• Processing (Info)

  • MPEC 2023-L80 : 2023 LN1

    The following Minor Planet Electronic Circular may be linked-to from your own Web pages, but must not otherwise be redistributed electronically.

    A form allowing access to any MPEC is at the bottom of this page.


    Read MPEC 2023-L79 Read MPEC 2023-L81


    M.P.E.C. 2023-L80                                 Issued 2023 June 15, 10:23 UT
    
         The Minor Planet Electronic Circulars contain information on unusual
             minor planets, routine data on comets and natural satellites,
             and occasional editorial announcements.  They are published
        on behalf of Division F of the International Astronomical Union by the
              Minor Planet Center, Smithsonian Astrophysical Observatory,
                              Cambridge, MA 02138, U.S.A.
    			  
                 Prepared using the Tamkin Foundation Computer Network
    
                                  MPC@CFA.HARVARD.EDU
                URL https://www.minorplanetcenter.net/    ISSN 1523-6714
    
                                    2023 LN1                                 
    
    
    Observations:
         K23L01N*1C2023 06 13.42317622 24 33.091-18 08 33.97         20.47GVEL080G96
         K23L01N 1C2023 06 13.42845722 24 32.213-18 08 28.00         20.83GVEL080G96
         K23L01N 1C2023 06 13.43903922 24 30.481-18 08 15.07         21.23GVEL080G96
         K23L01N KC2023 06 13.45523522 24 27.742-18 07 54.55         20.97GVEL080I52
         K23L01N KC2023 06 13.45717322 24 27.414-18 07 52.00         20.81GVEL080I52
         K23L01N KC2023 06 13.58041822 24 11.84 -18 03 23.3          21.1 GVEL080474
         K23L01N KC2023 06 13.58756322 24 10.71 -18 03 13.9          21.0 GVEL080474
         K23L01N KC2023 06 13.59471022 24 09.61 -18 03 05.4          21.2 GVEL080474
         K23L01N KC2023 06 13.60185722 24 08.52 -18 02 56.4          20.9 GVEL080474
         K23L01N KC2023 06 14.38669622 22 14.452-17 47 08.99         21.34GVEL080I52
         K23L01N KC2023 06 14.38880622 22 14.099-17 47 06.58         21.40GVEL080I52
         K23L01N KC2023 06 14.39092222 22 13.706-17 47 03.73         21.41GVEL080I52
         K23L01N KC2023 06 14.39304822 22 13.343-17 47 00.82         20.25GVEL080I52
         K23L01N |C2023 06 15.28340 22 19 54.13 -17 24 53.9          20.7 VuEL080807
         K23L01N |C2023 06 15.28994 22 19 52.91 -17 24 46.5          21.0 VuEL080807
         K23L01N |C2023 06 15.29649 22 19 51.66 -17 24 36.6          21.0 VuEL080807
         K23L01N KC2023 06 15.40177722 19 34.511-17 23 32.96         20.42GVEL080I52
         K23L01N KC2023 06 15.40411322 19 34.097-17 23 30.70         21.19GVEL080I52
         K23L01N KC2023 06 15.40643422 19 33.676-17 23 26.84         20.91GVEL080I52
    
    Observer details:
    474 Mount John Observatory, Lake Tekapo.  Observers A. C. Gilmore, P. M.
        Kilmartin.  Measurer P. M. Kilmartin.  0.6-m f/6.2 reflector + CCD.
    807 Cerro Tololo Observatory, La Serena.  Observers T. Linder, R. Holmes, L.
        Horn.  0.61-m f/6.5 Dall-Kirkham Astrograph + CCD.
    G96 Mt. Lemmon Survey.  Observer A. Serrano.  Measurers E. J. Christensen, D.
        Fay, J. B. Fazekas, D. C. Fuls, A. R. Gibbs, A. D. Grauer, H. Groeller, J.
        K. Hogan, R. A. Kowalski, S. M. Larson, G. J. Leonard, D. Rankin, R. L.
        Seaman, A. Serrano, F. C. Shelly, K. W. Wierzchos.  1.5-m reflector + 10K
        CCD.
    I52 Steward Observatory, Mt. Lemmon Station.  Observers D. Rankin, H.
        Groeller.  Measurers E. J. Christensen, D. Fay, J. B. Fazekas, D. C. Fuls,
        A. R. Gibbs, A. D. Grauer, H. Groeller, J. K. Hogan, R. A. Kowalski, S. M.
        Larson, G. J. Leonard, D. Rankin, R. L. Seaman, A. Serrano, F. C. Shelly,
        K. W. Wierzchos.  1.0-m prime focus + CCD.
    
    Orbital elements:
    2023 LN1                                                 Earth MOID = 0.0375 AU
    Epoch 2023 Feb. 25.0 TT = JDT 2460000.5                 Veres                   
    M  18.42095              (2000.0)            P               Q                  
    n   1.32576884     Peri.  182.59563     -0.12630830     -0.98709014             
    a   0.8206491      Node   274.67344     +0.91190475     -0.07645741             
    e   0.2958891      Incl.    5.67085     +0.39048167     -0.14073850             
    P   0.74           H   23.79          G   0.15           U   8                  
    Residuals in seconds of arc
    230613 G96  0.1-  0.4+    230613 474  0.0   0.0     230615 807  0.2+  0.7-
    230613 G96  0.1-  0.1-    230613 474  0.7+  0.3+    230615 807  0.1+  0.4+
    230613 G96  0.3+  0.2-    230614 I52  0.2-  0.2+    230615 I52  0.5-  0.5+
    230613 I52  0.0   0.2+    230614 I52  0.0   0.1-    230615 I52  0.1-  0.4-
    230613 I52  0.0   0.3+    230614 I52  0.3-  0.1+    230615 I52  0.2+  0.3+
    230613 474  0.2-  0.4-    230614 I52  0.2-  0.3+
    230613 474  0.4-  0.3+    230615 807  0.1+  0.6+
    
    Ephemeris:
    2023 LN1                 a,e,i = 0.82, 0.30, 6                   q = 0.5778
    Date    TT    R. A. (2000) Decl.     Delta      r    Elong.  Phase     V
    2023 05 16    22 52 26.6 -24 40 11   0.1794  0.9960    80.1    89.6    23.2
    ...
    2023 05 31    22 43 41.7 -21 54 39   0.1430  1.0356    94.8    77.3    22.3
    ...
    2023 06 08    22 34 40.5 -19 52 40   0.1205  1.0497   103.6    70.0    21.8
    ...
    2023 06 14    22 23 08.3 -17 54 53   0.1027  1.0571   111.2    63.6    21.2
    2023 06 15    22 20 36.2 -17 32 02   0.09976 1.0580   112.6    62.4    21.1
    2023 06 16    22 17 51.0 -17 08 00   0.09679 1.0589   114.0    61.2    21.0
    ...
    2023 06 22    21 55 28.7 -14 10 58   0.07931 1.0626   123.9    52.5    20.4
    ...
    2023 06 30    21 01 37.7 -07 42 22   0.05880 1.0631   141.2    36.8    19.3
    ...
    2023 07 15    17 37 27.5 +14 02 58   0.04819 1.0506   134.1    44.0    19.0
    
    M. P. C. Staff               (C) Copyright 2023 MPC           M.P.E.C. 2023-L80
    


    Read MPEC 2023-L79 Read MPEC 2023-L81


    MPEC number:

    Enter an MPEC number in one of the following forms:

    • 1997-B01 (the full form)
    • J97B01 (the packed version of the full form)
    • B01 (the abbreviated form)